contact:dominique.lefevre@mio.osupytheas.fr, maurice.libes@osupytheas.fr, didier.mallarino@osupytheas.fr
Project:EMSO http://www.emso-fr.org/EMSO-France
Depth: 2436.0 m
Title:EMSO Ligure Ouest : Data MII capteur MICROCAT
DateTime_Computer,Latitude,Longitude,Temperature,Conductivity,Pressure,DateTime_Instrument
DateTime_Computer,Latitude,Longitude,degC,S m-1,dbar,DateTime_Instrument
2020-05-29T00:01:53Z,42.805,6.029,13.2969,4.59986,2470.124,2020-5-29T02:02:36Z
2020-05-29T00:04:56Z,42.805,6.029,13.2967,4.59987,2470.133,2020-5-29T02:05:39Z
2020-05-29T00:07:59Z,42.805,6.029,13.2964,4.59995,2470.11,2020-5-29T02:08:42Z
2020-05-29T00:11:02Z,42.805,6.029,13.2969,4.59995,2470.11,2020-5-29T02:11:45Z
2020-05-29T00:14:06Z,42.805,6.029,13.2967,4.59985,2470.133,2020-5-29T02:14:49Z
2020-05-29T00:17:09Z,42.805,6.029,13.2962,4.59982,2470.11,2020-5-29T02:17:52Z
2020-05-29T00:20:12Z,42.805,6.029,13.2967,4.60000,2470.11,2020-5-29T02:20:55Z
2020-05-29T00:23:15Z,42.805,6.029,13.2970,4.59990,2470.11,2020-5-29T02:23:58Z
2020-05-29T00:26:18Z,42.805,6.029,13.2968,4.59986,2470.124,2020-5-29T02:27:01Z
2020-05-29T00:29:22Z,42.805,6.029,13.2967,4.59988,2470.133,2020-5-29T02:30:05Z
2020-05-29T00:32:25Z,42.805,6.029,13.2967,4.59988,2470.11,2020-5-29T02:33:08Z
2020-05-29T00:35:28Z,42.805,6.029,13.2968,4.60001,2470.147,2020-5-29T02:36:11Z
2020-05-29T00:38:31Z,42.805,6.029,13.2967,4.59994,2470.133,2020-5-29T02:39:14Z
2020-05-29T00:41:35Z,42.805,6.029,13.2972,4.60002,2470.11,2020-5-29T02:42:18Z
2020-05-29T00:44:38Z,42.805,6.029,13.2968,4.60007,2470.124,2020-5-29T02:45:21Z
2020-05-29T00:47:41Z,42.805,6.029,13.2968,4.59994,2470.147,2020-5-29T02:48:24Z
2020-05-29T00:50:44Z,42.805,6.029,13.2967,4.59990,2470.133,2020-5-29T02:51:27Z
2020-05-29T00:53:48Z,42.805,6.029,13.2971,4.59995,2470.124,2020-5-29T02:54:31Z
2020-05-29T00:56:51Z,42.805,6.029,13.2967,4.59991,2470.1,2020-5-29T02:57:34Z
2020-05-29T00:59:54Z,42.805,6.029,13.2970,4.59997,2470.11,2020-5-29T03:00:37Z
2020-05-29T01:02:57Z,42.805,6.029,13.2967,4.59993,2470.1,2020-5-29T03:03:40Z
2020-05-29T01:06:01Z,42.805,6.029,13.2968,4.60003,2470.124,2020-5-29T03:06:44Z
2020-05-29T01:09:04Z,42.805,6.029,13.2970,4.59998,2470.11,2020-5-29T03:09:47Z
2020-05-29T01:12:07Z,42.805,6.029,13.2965,4.59986,2470.087,2020-5-29T03:12:50Z
2020-05-29T01:15:10Z,42.805,6.029,13.2970,4.60003,2470.087,2020-5-29T03:15:54Z
2020-05-29T01:18:14Z,42.805,6.029,13.2966,4.60005,2470.1,2020-5-29T03:18:57Z
2020-05-29T01:21:17Z,42.805,6.029,13.2967,4.59997,2470.1,2020-5-29T03:22:00Z
2020-05-29T01:24:20Z,42.805,6.029,13.2971,4.59991,2470.087,2020-5-29T03:25:03Z
2020-05-29T01:27:23Z,42.805,6.029,13.2973,4.59999,2470.124,2020-5-29T03:28:06Z
2020-05-29T01:30:27Z,42.805,6.029,13.2973,4.60008,2470.087,2020-5-29T03:31:10Z
2020-05-29T01:33:30Z,42.805,6.029,13.2967,4.60010,2470.1,2020-5-29T03:34:13Z
2020-05-29T01:36:33Z,42.805,6.029,13.2968,4.60001,2470.11,2020-5-29T03:37:16Z
2020-05-29T01:39:36Z,42.805,6.029,13.2969,4.60004,2470.1,2020-5-29T03:40:19Z
2020-05-29T01:42:40Z,42.805,6.029,13.2968,4.60006,2470.11,2020-5-29T03:43:23Z
2020-05-29T01:45:43Z,42.805,6.029,13.2968,4.59989,2470.124,2020-5-29T03:46:26Z
2020-05-29T01:48:46Z,42.805,6.029,13.2966,4.59990,2470.077,2020-5-29T03:49:29Z
2020-05-29T01:51:49Z,42.805,6.029,13.2967,4.60003,2470.11,2020-5-29T03:52:32Z
2020-05-29T01:54:53Z,42.805,6.029,13.2967,4.60005,2470.124,2020-5-29T03:55:36Z
2020-05-29T01:57:56Z,42.805,6.029,13.2967,4.60012,2470.11,2020-5-29T03:58:39Z
2020-05-29T02:00:59Z,42.805,6.029,13.2970,4.60003,2470.11,2020-5-29T04:01:42Z
2020-05-29T02:04:02Z,42.805,6.029,13.2968,4.60003,2470.124,2020-5-29T04:04:45Z
2020-05-29T02:07:06Z,42.805,6.029,13.2964,4.60001,2470.087,2020-5-29T04:07:49Z
2020-05-29T02:10:09Z,42.805,6.029,13.2966,4.59992,2470.11,2020-5-29T04:10:52Z
2020-05-29T02:13:12Z,42.805,6.029,13.2966,4.59991,2470.087,2020-5-29T04:13:55Z
2020-05-29T02:16:15Z,42.805,6.029,13.2967,4.59998,2470.124,2020-5-29T04:16:58Z
2020-05-29T02:19:18Z,42.805,6.029,13.2967,4.59996,2470.063,2020-5-29T04:20:01Z
2020-05-29T02:22:22Z,42.805,6.029,13.2969,4.60004,2470.087,2020-5-29T04:23:05Z
2020-05-29T02:25:25Z,42.805,6.029,13.2970,4.59994,2470.124,2020-5-29T04:26:08Z
2020-05-29T02:28:28Z,42.805,6.029,13.2967,4.60023,2470.063,2020-5-29T04:29:11Z
2020-05-29T02:31:32Z,42.805,6.029,13.2967,4.60014,2470.087,2020-5-29T04:32:15Z
2020-05-29T02:34:35Z,42.805,6.029,13.2968,4.60015,2470.063,2020-5-29T04:35:18Z
2020-05-29T02:37:38Z,42.805,6.029,13.2968,4.59996,2470.087,2020-5-29T04:38:21Z
2020-05-29T02:40:42Z,42.805,6.029,13.2966,4.60003,2470.087,2020-5-29T04:41:25Z
2020-05-29T02:43:45Z,42.805,6.029,13.2967,4.60001,2470.077,2020-5-29T04:44:28Z
2020-05-29T02:46:48Z,42.805,6.029,13.2973,4.60001,2470.063,2020-5-29T04:47:31Z
2020-05-29T02:49:51Z,42.805,6.029,13.2965,4.60006,2470.063,2020-5-29T04:50:34Z
2020-05-29T02:52:55Z,42.805,6.029,13.2968,4.60039,2470.063,2020-5-29T04:53:38Z
2020-05-29T02:55:58Z,42.805,6.029,13.2967,4.60011,2470.04,2020-5-29T04:56:41Z
2020-05-29T02:59:01Z,42.805,6.029,13.2968,4.60009,2470.1,2020-5-29T04:59:44Z
2020-05-29T03:02:04Z,42.805,6.029,13.2966,4.60001,2470.077,2020-5-29T05:02:47Z
2020-05-29T03:05:07Z,42.805,6.029,13.2967,4.59999,2470.077,2020-5-29T05:05:50Z
2020-05-29T03:08:11Z,42.805,6.029,13.2967,4.60016,2470.04,2020-5-29T05:08:54Z
2020-05-29T03:11:14Z,42.805,6.029,13.2969,4.60014,2470.087,2020-5-29T05:11:57Z
2020-05-29T03:14:17Z,42.805,6.029,13.2967,4.60046,2470.04,2020-5-29T05:15:00Z
2020-05-29T03:17:20Z,42.805,6.029,13.2965,4.60099,2470.063,2020-5-29T05:18:03Z
2020-05-29T03:20:24Z,42.805,6.029,13.2964,4.60110,2470.063,2020-5-29T05:21:07Z
2020-05-29T03:23:27Z,42.805,6.029,13.2969,4.60043,2470.063,2020-5-29T05:24:10Z
2020-05-29T03:26:30Z,42.805,6.029,13.2976,4.60031,2470.04,2020-5-29T05:27:13Z
2020-05-29T03:29:33Z,42.805,6.029,13.2991,4.60033,2470.03,2020-5-29T05:30:16Z
2020-05-29T03:32:37Z,42.805,6.029,13.2971,4.60057,2470.03,2020-5-29T05:33:20Z
2020-05-29T03:35:40Z,42.805,6.029,13.3000,4.60026,2470.077,2020-5-29T05:36:23Z
2020-05-29T03:38:43Z,42.805,6.029,13.2989,4.60019,2470.063,2020-5-29T05:39:26Z
2020-05-29T03:41:46Z,42.805,6.029,13.2993,4.60035,2470.017,2020-5-29T05:42:29Z
2020-05-29T03:44:50Z,42.805,6.029,13.3014,4.60026,2470.04,2020-5-29T05:45:33Z
2020-05-29T03:47:53Z,42.805,6.029,13.3032,4.60046,2470.017,2020-5-29T05:48:36Z
2020-05-29T03:50:56Z,42.805,6.029,13.2996,4.60043,2470.04,2020-5-29T05:51:39Z
2020-05-29T03:53:59Z,42.805,6.029,13.2971,4.60084,2470.017,2020-5-29T05:54:42Z
2020-05-29T03:57:02Z,42.805,6.029,13.2982,4.60015,2470.053,2020-5-29T05:57:45Z
2020-05-29T04:00:06Z,42.805,6.029,13.2964,4.60074,2470.053,2020-5-29T06:00:49Z
2020-05-29T04:03:09Z,42.805,6.029,13.2975,4.60055,2470.017,2020-5-29T06:03:52Z
2020-05-29T04:06:12Z,42.805,6.029,13.3011,4.60036,2470.04,2020-5-29T06:06:55Z
2020-05-29T04:09:16Z,42.805,6.029,13.3004,4.60021,2470.077,2020-5-29T06:09:59Z
2020-05-29T04:12:19Z,42.805,6.029,13.2998,4.59999,2470.053,2020-5-29T06:13:02Z
2020-05-29T04:15:22Z,42.805,6.029,13.3019,4.60036,2469.993,2020-5-29T06:16:05Z
2020-05-29T04:18:26Z,42.805,6.029,13.3028,4.60037,2470.03,2020-5-29T06:19:09Z
2020-05-29T04:21:29Z,42.805,6.029,13.3028,4.60049,2470.017,2020-5-29T06:22:12Z
2020-05-29T04:24:32Z,42.805,6.029,13.3011,4.60033,2470.053,2020-5-29T06:25:15Z
2020-05-29T04:27:35Z,42.805,6.029,13.3024,4.60036,2470.03,2020-5-29T06:28:18Z
2020-05-29T04:30:39Z,42.805,6.029,13.3043,4.60056,2470.017,2020-5-29T06:31:22Z
2020-05-29T04:33:42Z,42.805,6.029,13.3036,4.60017,2470.017,2020-5-29T06:34:25Z
2020-05-29T04:36:45Z,42.805,6.029,13.3011,4.60038,2470.03,2020-5-29T06:37:28Z
2020-05-29T04:39:48Z,42.805,6.029,13.3033,4.60038,2470.04,2020-5-29T06:40:31Z
2020-05-29T04:42:51Z,42.805,6.029,13.2968,4.60044,2469.993,2020-5-29T06:43:35Z
2020-05-29T04:45:55Z,42.805,6.029,13.2975,4.60054,2470.053,2020-5-29T06:46:38Z
2020-05-29T04:48:58Z,42.805,6.029,13.2969,4.60023,2470.007,2020-5-29T06:49:41Z
2020-05-29T04:52:01Z,42.805,6.029,13.2993,4.60025,2470.017,2020-5-29T06:52:44Z
2020-05-29T04:55:05Z,42.805,6.029,13.2969,4.60041,2470.007,2020-5-29T06:55:48Z
2020-05-29T04:58:08Z,42.805,6.029,13.2976,4.60017,2470.017,2020-5-29T06:58:51Z
2020-05-29T05:01:11Z,42.805,6.029,13.2968,4.60078,2470.03,2020-5-29T07:01:54Z
2020-05-29T05:04:14Z,42.805,6.029,13.2968,4.60121,2469.993,2020-5-29T07:04:57Z
2020-05-29T05:07:18Z,42.805,6.029,13.2976,4.60011,2470.017,2020-5-29T07:08:01Z
2020-05-29T05:10:21Z,42.805,6.029,13.2981,4.60026,2469.984,2020-5-29T07:11:04Z
2020-05-29T05:13:24Z,42.805,6.029,13.2972,4.60087,2469.993,2020-5-29T07:14:07Z
2020-05-29T05:16:27Z,42.805,6.029,13.2967,4.60074,2470.017,2020-5-29T07:17:10Z
2020-05-29T05:19:31Z,42.805,6.029,13.2971,4.60046,2469.993,2020-5-29T07:20:14Z
2020-05-29T05:22:34Z,42.805,6.029,13.2970,4.60067,2469.993,2020-5-29T07:23:17Z
2020-05-29T05:25:37Z,42.805,6.029,13.2980,4.60039,2470.003,2020-5-29T07:26:20Z
2020-05-29T05:28:40Z,42.805,6.029,13.2998,4.60026,2470.017,2020-5-29T07:29:23Z
2020-05-29T05:31:44Z,42.805,6.029,13.3008,4.60044,2469.97,2020-5-29T07:32:27Z
2020-05-29T05:34:47Z,42.805,6.029,13.3032,4.60012,2470.03,2020-5-29T07:35:30Z
2020-05-29T05:37:50Z,42.805,6.029,13.3014,4.60033,2470.017,2020-5-29T07:38:33Z
2020-05-29T05:40:53Z,42.805,6.029,13.2990,4.60021,2469.96,2020-5-29T07:41:36Z
2020-05-29T05:43:57Z,42.805,6.029,13.3036,4.60010,2469.97,2020-5-29T07:44:40Z
2020-05-29T05:47:00Z,42.805,6.029,13.2971,4.60041,2469.984,2020-5-29T07:47:43Z
2020-05-29T05:50:03Z,42.805,6.029,13.2978,4.60025,2469.97,2020-5-29T07:50:46Z
2020-05-29T05:53:06Z,42.805,6.029,13.2981,4.60054,2469.947,2020-5-29T07:53:49Z
2020-05-29T05:56:10Z,42.805,6.029,13.2993,4.60057,2470.017,2020-5-29T07:56:53Z
2020-05-29T05:59:13Z,42.805,6.029,13.2969,4.60033,2469.97,2020-5-29T07:59:56Z
2020-05-29T06:02:16Z,42.805,6.029,13.2986,4.60014,2470.007,2020-5-29T08:02:59Z
2020-05-29T06:05:20Z,42.805,6.029,13.2970,4.60034,2469.947,2020-5-29T08:06:03Z
2020-05-29T06:08:23Z,42.805,6.029,13.2993,4.60006,2469.993,2020-5-29T08:09:06Z
2020-05-29T06:11:26Z,42.805,6.029,13.3009,4.60003,2469.984,2020-5-29T08:12:09Z
2020-05-29T06:14:29Z,42.805,6.029,13.2970,4.60051,2469.947,2020-5-29T08:15:12Z
2020-05-29T06:17:32Z,42.805,6.029,13.2986,4.60023,2469.97,2020-5-29T08:18:15Z
2020-05-29T06:20:36Z,42.805,6.029,13.2969,4.60082,2469.97,2020-5-29T08:21:19Z
2020-05-29T06:23:39Z,42.805,6.029,13.2967,4.60075,2469.947,2020-5-29T08:24:22Z
2020-05-29T06:26:42Z,42.805,6.029,13.2976,4.60039,2469.97,2020-5-29T08:27:25Z
2020-05-29T06:29:45Z,42.805,6.029,13.2968,4.60045,2469.984,2020-5-29T08:30:28Z
2020-05-29T06:32:49Z,42.805,6.029,13.2968,4.60069,2469.96,2020-5-29T08:33:32Z
2020-05-29T06:35:52Z,42.805,6.029,13.2972,4.60098,2469.984,2020-5-29T08:36:35Z
2020-05-29T06:38:55Z,42.805,6.029,13.2969,4.60026,2469.96,2020-5-29T08:39:38Z
2020-05-29T06:41:58Z,42.805,6.029,13.2970,4.60056,2469.97,2020-5-29T08:42:41Z
2020-05-29T06:45:01Z,42.805,6.029,13.2969,4.60043,2470.007,2020-5-29T08:45:44Z
2020-05-29T06:48:05Z,42.805,6.029,13.2967,4.60064,2469.97,2020-5-29T08:48:48Z
2020-05-29T06:51:08Z,42.805,6.029,13.2965,4.60046,2469.97,2020-5-29T08:51:51Z
2020-05-29T06:54:11Z,42.805,6.029,13.2968,4.60049,2469.96,2020-5-29T08:54:54Z
2020-05-29T06:57:14Z,42.805,6.029,13.2968,4.60024,2469.993,2020-5-29T08:57:57Z
2020-05-29T07:00:18Z,42.805,6.029,13.2967,4.60041,2470.017,2020-5-29T09:01:01Z
2020-05-29T07:03:21Z,42.805,6.029,13.2967,4.60023,2469.97,2020-5-29T09:04:04Z
2020-05-29T07:06:24Z,42.805,6.029,13.2968,4.60031,2469.96,2020-5-29T09:07:07Z
2020-05-29T07:09:28Z,42.805,6.029,13.2968,4.60041,2469.97,2020-5-29T09:10:11Z
2020-05-29T07:12:31Z,42.805,6.029,13.2964,4.60080,2469.97,2020-5-29T09:13:14Z
2020-05-29T07:15:34Z,42.805,6.029,13.2968,4.60069,2469.984,2020-5-29T09:16:17Z
2020-05-29T07:18:37Z,42.805,6.029,13.2969,4.60021,2470.007,2020-5-29T09:19:20Z
2020-05-29T07:21:41Z,42.805,6.029,13.2974,4.60012,2469.984,2020-5-29T09:22:24Z
2020-05-29T07:24:44Z,42.805,6.029,13.2970,4.60001,2469.97,2020-5-29T09:25:27Z
2020-05-29T07:27:47Z,42.805,6.029,13.2967,4.60017,2469.97,2020-5-29T09:28:30Z
2020-05-29T07:30:50Z,42.805,6.029,13.2968,4.59999,2469.993,2020-5-29T09:31:33Z
2020-05-29T07:33:53Z,42.805,6.029,13.2968,4.60001,2470.007,2020-5-29T09:34:37Z
2020-05-29T07:36:57Z,42.805,6.029,13.2970,4.60006,2469.993,2020-5-29T09:37:40Z
2020-05-29T07:40:00Z,42.805,6.029,13.2968,4.60003,2469.993,2020-5-29T09:40:43Z
2020-05-29T07:43:03Z,42.805,6.029,13.2968,4.59988,2469.993,2020-5-29T09:43:46Z
2020-05-29T07:46:06Z,42.805,6.029,13.2968,4.59991,2469.97,2020-5-29T09:46:49Z
2020-05-29T07:49:10Z,42.805,6.029,13.2967,4.59983,2469.947,2020-5-29T09:49:53Z
2020-05-29T07:52:13Z,42.805,6.029,13.2970,4.59983,2470.007,2020-5-29T09:52:56Z
2020-05-29T07:55:16Z,42.805,6.029,13.2967,4.59991,2470.007,2020-5-29T09:55:59Z
2020-05-29T07:58:19Z,42.805,6.029,13.2968,4.59986,2469.984,2020-5-29T09:59:02Z
2020-05-29T08:01:23Z,42.805,6.029,13.2965,4.59989,2469.947,2020-5-29T10:02:06Z
2020-05-29T08:04:26Z,42.805,6.029,13.2967,4.59984,2469.979,2020-5-29T10:05:09Z
2020-05-29T08:07:29Z,42.805,6.029,13.2971,4.59984,2470.007,2020-5-29T10:08:12Z
2020-05-29T08:10:32Z,42.805,6.029,13.2967,4.59985,2469.984,2020-5-29T10:11:15Z
2020-05-29T08:13:36Z,42.805,6.029,13.2969,4.59984,2469.993,2020-5-29T10:14:19Z
2020-05-29T08:16:39Z,42.805,6.029,13.2970,4.59990,2469.97,2020-5-29T10:17:22Z
2020-05-29T08:19:42Z,42.805,6.029,13.2969,4.59988,2469.984,2020-5-29T10:20:25Z
2020-05-29T08:22:46Z,42.805,6.029,13.2968,4.59991,2469.97,2020-5-29T10:23:29Z
2020-05-29T08:25:49Z,42.805,6.029,13.2968,4.59986,2470.017,2020-5-29T10:26:32Z
2020-05-29T08:28:52Z,42.805,6.029,13.2970,4.59987,2470.007,2020-5-29T10:29:35Z
2020-05-29T08:31:55Z,42.805,6.029,13.2967,4.59984,2469.993,2020-5-29T10:32:38Z
2020-05-29T08:34:59Z,42.805,6.029,13.2966,4.59980,2469.993,2020-5-29T10:35:42Z
2020-05-29T08:38:02Z,42.805,6.029,13.2967,4.59978,2469.993,2020-5-29T10:38:45Z
2020-05-29T08:41:05Z,42.805,6.029,13.2968,4.59985,2469.97,2020-5-29T10:41:48Z
2020-05-29T08:44:08Z,42.805,6.029,13.2967,4.59996,2469.993,2020-5-29T10:44:51Z
2020-05-29T08:47:12Z,42.805,6.029,13.2968,4.59994,2470.03,2020-5-29T10:47:55Z
2020-05-29T08:50:15Z,42.805,6.029,13.2967,4.60003,2470.007,2020-5-29T10:50:58Z
2020-05-29T08:53:18Z,42.805,6.029,13.2963,4.59996,2469.947,2020-5-29T10:54:01Z
2020-05-29T08:56:21Z,42.805,6.029,13.2967,4.59992,2469.984,2020-5-29T10:57:04Z
2020-05-29T08:59:25Z,42.805,6.029,13.2968,4.60001,2469.993,2020-5-29T11:00:08Z
2020-05-29T09:02:28Z,42.805,6.029,13.2967,4.59996,2470.017,2020-5-29T11:03:11Z
2020-05-29T09:05:31Z,42.805,6.029,13.2972,4.60001,2470.007,2020-5-29T11:06:14Z
2020-05-29T09:08:34Z,42.805,6.029,13.2976,4.59994,2470.007,2020-5-29T11:09:17Z
2020-05-29T09:11:37Z,42.805,6.029,13.2975,4.60003,2469.993,2020-5-29T11:12:20Z
2020-05-29T09:14:41Z,42.805,6.029,13.2971,4.60055,2469.993,2020-5-29T11:15:24Z
2020-05-29T09:17:44Z,42.805,6.029,13.3006,4.60007,2470.007,2020-5-29T11:18:27Z
2020-05-29T09:20:47Z,42.805,6.029,13.3026,4.60006,2470.03,2020-5-29T11:21:30Z
2020-05-29T09:23:51Z,42.805,6.029,13.2976,4.60026,2470.007,2020-5-29T11:24:34Z
2020-05-29T09:26:54Z,42.805,6.029,13.3023,4.60015,2469.993,2020-5-29T11:27:37Z
2020-05-29T09:29:57Z,42.805,6.029,13.2979,4.60016,2470.007,2020-5-29T11:30:40Z
2020-05-29T09:33:00Z,42.805,6.029,13.3048,4.60012,2470.017,2020-5-29T11:33:43Z
2020-05-29T09:36:04Z,42.805,6.029,13.3031,4.60025,2470.03,2020-5-29T11:36:47Z
2020-05-29T09:39:07Z,42.805,6.029,13.3046,4.60027,2469.993,2020-5-29T11:39:50Z
2020-05-29T09:42:10Z,42.805,6.029,13.3035,4.60007,2470.03,2020-5-29T11:42:53Z
2020-05-29T09:45:13Z,42.805,6.029,13.2987,4.60005,2469.993,2020-5-29T11:45:56Z
2020-05-29T09:48:16Z,42.805,6.029,13.2993,4.60003,2470.04,2020-5-29T11:49:00Z
2020-05-29T09:51:20Z,42.805,6.029,13.2971,4.60041,2470.017,2020-5-29T11:52:03Z
2020-05-29T09:54:23Z,42.805,6.029,13.3028,4.60023,2470.03,2020-5-29T11:55:06Z
2020-05-29T09:57:26Z,42.805,6.029,13.3051,4.60026,2469.993,2020-5-29T11:58:09Z
2020-05-29T10:00:29Z,42.805,6.029,13.3029,4.60038,2470.017,2020-5-29T12:01:12Z
2020-05-29T10:03:33Z,42.805,6.029,13.2971,4.60033,2469.984,2020-5-29T12:04:16Z
2020-05-29T10:06:36Z,42.805,6.029,13.3003,4.60022,2470.017,2020-5-29T12:07:19Z
2020-05-29T10:09:39Z,42.805,6.029,13.2973,4.60037,2470.007,2020-5-29T12:10:22Z
2020-05-29T10:12:42Z,42.805,6.029,13.2969,4.60031,2470.03,2020-5-29T12:13:25Z
2020-05-29T10:15:46Z,42.805,6.029,13.2982,4.59996,2470.007,2020-5-29T12:16:29Z
2020-05-29T10:18:49Z,42.805,6.029,13.2976,4.60011,2470.044,2020-5-29T12:19:32Z
2020-05-29T10:21:52Z,42.805,6.029,13.2974,4.60044,2470.03,2020-5-29T12:22:35Z
2020-05-29T10:24:55Z,42.805,6.029,13.2967,4.60043,2470.007,2020-5-29T12:25:38Z
2020-05-29T10:27:59Z,42.805,6.029,13.3032,4.60009,2470.03,2020-5-29T12:28:42Z
2020-05-29T10:31:02Z,42.805,6.029,13.2981,4.60041,2470.017,2020-5-29T12:31:45Z
2020-05-29T10:34:05Z,42.805,6.029,13.2970,4.60024,2470.017,2020-5-29T12:34:48Z
2020-05-29T10:37:08Z,42.805,6.029,13.2983,4.60052,2470.03,2020-5-29T12:37:51Z
2020-05-29T10:40:12Z,42.805,6.029,13.2967,4.60040,2470.017,2020-5-29T12:40:55Z
2020-05-29T10:43:15Z,42.805,6.029,13.2976,4.60014,2470.077,2020-5-29T12:43:58Z
2020-05-29T10:46:18Z,42.805,6.029,13.2979,4.60011,2470.017,2020-5-29T12:47:01Z
2020-05-29T10:49:21Z,42.805,6.029,13.2993,4.60023,2469.993,2020-5-29T12:50:04Z
2020-05-29T10:52:25Z,42.805,6.029,13.3026,4.60019,2470.04,2020-5-29T12:53:08Z
2020-05-29T10:55:28Z,42.805,6.029,13.3038,4.60014,2470.03,2020-5-29T12:56:11Z
2020-05-29T10:58:31Z,42.805,6.029,13.3010,4.60016,2470.04,2020-5-29T12:59:14Z
2020-05-29T11:01:34Z,42.805,6.029,13.2984,4.60031,2470.03,2020-5-29T13:02:17Z
2020-05-29T11:04:38Z,42.805,6.029,13.3024,4.60029,2470.007,2020-5-29T13:05:21Z
2020-05-29T11:07:41Z,42.805,6.029,13.2988,4.60014,2470.03,2020-5-29T13:08:24Z
2020-05-29T11:10:44Z,42.805,6.029,13.3006,4.60053,2470.007,2020-5-29T13:11:27Z
2020-05-29T11:13:47Z,42.805,6.029,13.3086,4.60028,2470.03,2020-5-29T13:14:30Z
2020-05-29T11:16:51Z,42.805,6.029,13.3035,4.60016,2470.017,2020-5-29T13:17:34Z
2020-05-29T11:19:54Z,42.805,6.029,13.3030,4.60018,2470.017,2020-5-29T13:20:37Z
2020-05-29T11:22:57Z,42.805,6.029,13.3021,4.60021,2469.993,2020-5-29T13:23:40Z
2020-05-29T11:26:00Z,42.805,6.029,13.3039,4.60015,2470.04,2020-5-29T13:26:43Z
2020-05-29T11:29:04Z,42.805,6.029,13.3054,4.60016,2470.017,2020-5-29T13:29:47Z
2020-05-29T11:32:07Z,42.805,6.029,13.3026,4.60017,2470.04,2020-5-29T13:32:50Z
2020-05-29T11:35:10Z,42.805,6.029,13.3024,4.60027,2470.03,2020-5-29T13:35:53Z
2020-05-29T11:38:13Z,42.805,6.029,13.3024,4.60007,2470.04,2020-5-29T13:38:56Z
2020-05-29T11:41:17Z,42.805,6.029,13.3019,4.60010,2470.04,2020-5-29T13:42:00Z
2020-05-29T11:44:20Z,42.805,6.029,13.3019,4.60016,2470.053,2020-5-29T13:45:03Z
2020-05-29T11:47:23Z,42.805,6.029,13.3011,4.60014,2470.017,2020-5-29T13:48:06Z
2020-05-29T11:50:26Z,42.805,6.029,13.3019,4.60005,2470.017,2020-5-29T13:51:09Z
2020-05-29T11:53:30Z,42.805,6.029,13.3019,4.60022,2470.053,2020-5-29T13:54:13Z
2020-05-29T11:56:33Z,42.805,6.029,13.2998,4.60013,2470.053,2020-5-29T13:57:16Z
2020-05-29T11:59:36Z,42.805,6.029,13.3005,4.60033,2469.993,2020-5-29T14:00:19Z
2020-05-29T12:02:39Z,42.805,6.029,13.3028,4.60031,2470.017,2020-5-29T14:03:22Z
2020-05-29T12:05:43Z,42.805,6.029,13.3024,4.60008,2470.04,2020-5-29T14:06:26Z
2020-05-29T12:08:46Z,42.805,6.029,13.3044,4.60013,2470.04,2020-5-29T14:09:29Z
2020-05-29T12:11:49Z,42.805,6.029,13.2996,4.60002,2470.007,2020-5-29T14:12:32Z
2020-05-29T12:14:52Z,42.805,6.029,13.3031,4.60009,2470.03,2020-5-29T14:15:35Z
2020-05-29T12:17:56Z,42.805,6.029,13.3026,4.60006,2470.03,2020-5-29T14:18:39Z
2020-05-29T12:20:59Z,42.805,6.029,13.3024,4.60014,2470.03,2020-5-29T14:21:42Z
2020-05-29T12:24:02Z,42.805,6.029,13.3032,4.60021,2470.03,2020-5-29T14:24:45Z
2020-05-29T12:27:05Z,42.805,6.029,13.3070,4.60022,2470.053,2020-5-29T14:27:48Z
2020-05-29T12:30:08Z,42.805,6.029,13.3024,4.60026,2470.03,2020-5-29T14:30:52Z
2020-05-29T12:33:12Z,42.805,6.029,13.3030,4.60024,2470.053,2020-5-29T14:33:55Z
2020-05-29T12:36:15Z,42.805,6.029,13.3026,4.60017,2470.053,2020-5-29T14:36:58Z
2020-05-29T12:39:18Z,42.805,6.029,13.3023,4.60017,2469.993,2020-5-29T14:40:01Z
2020-05-29T12:42:21Z,42.805,6.029,13.3079,4.60020,2470.03,2020-5-29T14:43:05Z
2020-05-29T12:45:25Z,42.805,6.029,13.3029,4.60009,2470.053,2020-5-29T14:46:08Z
2020-05-29T12:48:28Z,42.805,6.029,13.3048,4.60010,2470.017,2020-5-29T14:49:11Z
2020-05-29T12:51:31Z,42.805,6.029,13.3050,4.60003,2470.017,2020-5-29T14:52:14Z
2020-05-29T12:54:35Z,42.805,6.029,13.3035,4.60004,2470.03,2020-5-29T14:55:18Z
2020-05-29T12:57:38Z,42.805,6.029,13.3016,4.60007,2469.993,2020-5-29T14:58:21Z
2020-05-29T13:00:41Z,42.805,6.029,13.3019,4.60015,2470.04,2020-5-29T15:01:24Z
2020-05-29T13:03:44Z,42.805,6.029,13.3044,4.60008,2470.007,2020-5-29T15:04:27Z
2020-05-29T13:06:48Z,42.805,6.029,13.3026,4.60009,2469.993,2020-5-29T15:07:31Z
2020-05-29T13:09:51Z,42.805,6.029,13.3021,4.60011,2470.03,2020-5-29T15:10:34Z
2020-05-29T13:12:54Z,42.805,6.029,13.3039,4.60019,2470.017,2020-5-29T15:13:37Z
2020-05-29T13:15:57Z,42.805,6.029,13.3064,4.60000,2470.021,2020-5-29T15:16:40Z
2020-05-29T13:19:01Z,42.805,6.029,13.3036,4.60011,2469.993,2020-5-29T15:19:44Z
2020-05-29T13:22:04Z,42.805,6.029,13.3024,4.60021,2470.017,2020-5-29T15:22:47Z
2020-05-29T13:25:07Z,42.805,6.029,13.3058,4.60009,2470.007,2020-5-29T15:25:51Z
2020-05-29T13:28:11Z,42.805,6.029,13.3040,4.60011,2470.03,2020-5-29T15:28:54Z
2020-05-29T13:31:14Z,42.805,6.029,13.3038,4.59997,2470.03,2020-5-29T15:31:57Z
2020-05-29T13:34:17Z,42.805,6.029,13.3029,4.59999,2469.993,2020-5-29T15:35:00Z
2020-05-29T13:37:21Z,42.805,6.029,13.3039,4.60011,2470.007,2020-5-29T15:38:04Z
2020-05-29T13:40:24Z,42.805,6.029,13.3031,4.60011,2470.007,2020-5-29T15:41:07Z
2020-05-29T13:43:27Z,42.805,6.029,13.3029,4.60008,2470.007,2020-5-29T15:44:10Z
2020-05-29T13:46:30Z,42.805,6.029,13.3031,4.60005,2470.007,2020-5-29T15:47:13Z
2020-05-29T13:49:34Z,42.805,6.029,13.3059,4.60006,2470.007,2020-5-29T15:50:17Z
2020-05-29T13:52:37Z,42.805,6.029,13.3054,4.60008,2470.03,2020-5-29T15:53:20Z
2020-05-29T13:55:40Z,42.805,6.029,13.3036,4.60003,2469.984,2020-5-29T15:56:23Z
2020-05-29T13:58:43Z,42.805,6.029,13.3049,4.60013,2469.993,2020-5-29T15:59:26Z
2020-05-29T14:01:47Z,42.805,6.029,13.3059,4.60015,2470.007,2020-5-29T16:02:30Z
2020-05-29T14:04:50Z,42.805,6.029,13.3035,4.60015,2470.017,2020-5-29T16:05:33Z
2020-05-29T14:07:53Z,42.805,6.029,13.3041,4.59996,2470.03,2020-5-29T16:08:36Z
2020-05-29T14:10:56Z,42.805,6.029,13.3061,4.60023,2470.007,2020-5-29T16:11:39Z
2020-05-29T14:14:00Z,42.805,6.029,13.3041,4.60011,2469.993,2020-5-29T16:14:43Z
2020-05-29T14:17:03Z,42.805,6.029,13.3034,4.60015,2469.97,2020-5-29T16:17:46Z
2020-05-29T14:20:06Z,42.805,6.029,13.3041,4.60014,2469.993,2020-5-29T16:20:49Z
2020-05-29T14:23:09Z,42.805,6.029,13.3036,4.60011,2469.993,2020-5-29T16:23:53Z
2020-05-29T14:26:13Z,42.805,6.029,13.3041,4.60003,2470.03,2020-5-29T16:26:56Z
2020-05-29T14:29:16Z,42.805,6.029,13.3041,4.60013,2469.979,2020-5-29T16:29:59Z
2020-05-29T14:32:19Z,42.805,6.029,13.3034,4.60016,2470.007,2020-5-29T16:33:02Z
2020-05-29T14:35:23Z,42.805,6.029,13.3045,4.60018,2470.007,2020-5-29T16:36:06Z
2020-05-29T14:38:26Z,42.805,6.029,13.3069,4.60014,2469.984,2020-5-29T16:39:09Z
2020-05-29T14:41:29Z,42.805,6.029,13.3057,4.60003,2469.984,2020-5-29T16:42:12Z
2020-05-29T14:44:32Z,42.805,6.029,13.3061,4.60019,2469.96,2020-5-29T16:45:15Z
2020-05-29T14:47:35Z,42.805,6.029,13.3046,4.60037,2470.007,2020-5-29T16:48:19Z
2020-05-29T14:50:39Z,42.805,6.029,13.3034,4.60010,2469.984,2020-5-29T16:51:22Z
2020-05-29T14:53:42Z,42.805,6.029,13.3036,4.60013,2469.993,2020-5-29T16:54:25Z
2020-05-29T14:56:45Z,42.805,6.029,13.3049,4.60011,2469.984,2020-5-29T16:57:28Z
2020-05-29T14:59:48Z,42.805,6.029,13.3026,4.60014,2469.97,2020-5-29T17:00:32Z
2020-05-29T15:02:52Z,42.805,6.029,13.3047,4.60004,2469.984,2020-5-29T17:03:35Z
2020-05-29T15:05:55Z,42.805,6.029,13.3030,4.60024,2470.007,2020-5-29T17:06:38Z
2020-05-29T15:08:58Z,42.805,6.029,13.2996,4.60009,2469.96,2020-5-29T17:09:41Z
2020-05-29T15:12:01Z,42.805,6.029,13.3024,4.60027,2470.007,2020-5-29T17:12:44Z
2020-05-29T15:15:05Z,42.805,6.029,13.3026,4.60029,2469.97,2020-5-29T17:15:48Z